This is the latest recevied weather packets stored in our database for station/object KD8DLP-13. If no packets are shown the sender has not sent any weather packets the latest 10 day(s).
| Time | Temp. | Humidity | Pressure | Rain* | Wind** | Luminosity | Snow |
|---|---|---|---|---|---|---|---|
| 1777815540 | 10° C | 60% | 1013.2 hPa | 0 mm | - | 107 W/m² | - |
| 1777815238 | 10.56° C | 60% | 1013.3 hPa | 0 mm | - | 119 W/m² | - |
| 1777814934 | 10° C | 61% | 1013.2 hPa | 0 mm | - | 174 W/m² | - |
| 1777814630 | 10° C | 62% | 1013.4 hPa | 0 mm | - | 136 W/m² | - |
| 1777814327 | 10° C | 63% | 1013.5 hPa | 0 mm | - | 80 W/m² | - |
| 1777814024 | 10° C | 62% | 1013.7 hPa | 0 mm | - | 52 W/m² | - |
| 1777813721 | 10° C | 61% | 1013.5 hPa | 0 mm | - | 65 W/m² | - |
| 1777813419 | 10° C | 60% | 1013.5 hPa | 0 mm | - | 96 W/m² | - |
| 1777813116 | 10° C | 60% | 1013.4 hPa | 0 mm | - | 81 W/m² | - |
| 1777812814 | 10° C | 60% | 1013.1 hPa | 0 mm | - | 128 W/m² | - |
| 1777812510 | 10° C | 60% | 1013.5 hPa | 0 mm | - | 114 W/m² | - |
| 1777812208 | 10° C | 60% | 1013.5 hPa | 0 mm | - | 103 W/m² | - |
| 1777811906 | 10° C | 60% | 1013.3 hPa | 0 mm | - | 78 W/m² | - |
| 1777811605 | 10° C | 61% | 1013.6 hPa | 0 mm | - | 60 W/m² | - |
| 1777811299 | 9.44° C | 60% | 1013.6 hPa | 0 mm | - | 65 W/m² | - |
| 1777810997 | 9.44° C | 61% | 1013.4 hPa | 0 mm | - | 54 W/m² | - |
| 1777810695 | 9.44° C | 61% | 1013.4 hPa | 0 mm | - | 35 W/m² | - |
| 1777810391 | 9.44° C | 61% | 1013.6 hPa | 0 mm | - | 28 W/m² | - |
| 1777810086 | 10° C | 60% | 1013.5 hPa | 0 mm | - | 47 W/m² | - |
| 1777809784 | 10° C | 60% | 1013.5 hPa | 0 mm | - | 63 W/m² | - |
| 1777809482 | 10° C | 59% | 1013.4 hPa | 0 mm | - | 60 W/m² | - |
| 1777809179 | 10° C | 59% | 1013.4 hPa | 0 mm | - | 68 W/m² | - |
| 1777808877 | 9.44° C | 58% | 1013.6 hPa | 0 mm | - | 31 W/m² | - |
| 1777808574 | 9.44° C | 58% | 1013.9 hPa | 0 mm | - | 19 W/m² | - |
| 1777808270 | 9.44° C | 58% | 1013.9 hPa | 0 mm | - | 18 W/m² | - |
* Rain latest hour (hover to see other rain measurements)
** Current wind speed in m/s (hover to see current wind gust speed)